Location: Clanezzo
(45.7500°N, 9.6000°E)
Time: 09:50:00
(UTC+00:00)

CUTE-I - Pass Details

Date: 10 December 2023
Orbit: 807 x 822 km, 98.7° (Epoch: 23 February)

Event Time Altitude Azimuth Distance (km) Brightness Sun altitude
Rises 16:27:53 0° 158° (SSE) 3,316 ? -8.6°
Reaches altitude 10° 16:30:12 10° 156° (SSE) 2,391 ? -9.0°
Maximum altitude 16:35:28 74° 73° (ENE) 851 ? -9.8°
Drops below altitude 10° 16:40:48 10° 349° (N) 2,418 ? -10.7°
Sets 16:43:10 0° 348° (NNW) 3,357 ? -11.1°
